Regional Weather Roundup
Issued by NWS

Home | Current Version | Previous Version | Graphics & Text | Print | Product List | Glossary On
Versions: 1 2 3 4 5 6 7 8 9 10 11 12 13 14 15 16 17 18 19 20 21 22 23 24 25 26 27 28 29 30 31 32 33 34 35 36 37 38 39 40 41 42 43 44 45 46 47 48 49 50
000
ASUS43 KMKX 181900
RWRWI

WISCONSIN REGIONAL WEATHER ROUNDUP
NATIONAL WEATHER SERVICE MILWAUKEE/SULLIVAN WI
200 PM CDT FRI APR 18 2014

NOTE: "FAIR" INDICATES FEW OR NO CLOUDS BELOW 12,000 FEET WITH NO
SIGNIFICANT WEATHER AND/OR OBSTRUCTIONS TO VISIBILITY.

WIZ001-002-006>008-014>016-023>028-182000-
NORTHWEST WISCONSIN

CITY           SKY/WX    TMP DP  RH WIND       PRES   REMARKS
SUPERIOR ARPT  SUNNY     36  24  61 NE8       30.42S WCI  30
ASHLAND        SUNNY     39  22  50 NE3       30.42S
HAYWARD        SUNNY     43  17  35 NE7       30.38R
SIREN          CLOUDY    43  21  40 E5        30.37F
RICE LAKE      PTSUNNY   42  23  46 CALM      30.39S
LADYSMITH      MOSUNNY   44  18  34 CALM      30.39S
EAU CLAIRE     NOT AVBL
MENOMONIE      CLEAR     47  24  41 E6        30.38S
NEW RICHMOND   SUNNY     46  26  46 SE5       30.36F
OSCEOLA        PTSUNNY   44  26  50 E8        30.39F
$$

WIZ003>005-009-010-017-018-182000-
NORTH CENTRAL WISCONSIN

CITY           SKY/WX    TMP DP  RH WIND       PRES   REMARKS
WOODRUFF       SUNNY     45  24  44 N7        30.36S
RHINELANDER    SUNNY     39  20  46 W7        30.36S WCI  34
EAGLE RIVER    MOSUNNY   37  20  51 NW6       30.36S WCI  32
LAND O LAKES   MOSUNNY   38  23  54 N6        30.37S WCI  33
PHILLIPS       MOSUNNY   38  20  48 N10       30.36S WCI  31
TOMAHAWK       SUNNY     41  17  38 NE3       30.36S
MEDFORD        PTSUNNY   41  20  44 N7        30.36S
MERRILL        SUNNY     44  22  41 CALM      30.36S
$$

WIZ029-030-035-036-043>047-182000-
CENTRAL WISCONSIN

CITY           SKY/WX    TMP DP  RH WIND       PRES   REMARKS
WAUSAU         SUNNY     46  20  35 N10       30.34S
MOSINEE        SUNNY     45  25  45 N9        30.37S
MARSHFIELD     SUNNY     47  24  40 N9        30.34F
STEVENS POINT  MOSUNNY   46  15  29 N12       30.35S
WAUPACA        MOSUNNY   52  19  28 NW9       30.35F
WAUTOMA        NOT AVBL
WISC RAPIDS    SUNNY     50  20  30 VRB7      30.36F
CAMP DOUGLAS   NOT AVBL
$$

WIZ011>013-019>022-031-037>040-048>050-182000-
NORTHEAST WISCONSIN

CITY           SKY/WX    TMP DP  RH WIND       PRES   REMARKS
ANTIGO         SUNNY     40  22  47 N8        30.35S
STURGEON BAY   SUNNY     41  25  52 NE8       30.38S
GREEN BAY      NOT AVBL
MANITOWOC      NOT AVBL
APPLETON       MOSUNNY   46  27  46 N10       30.36S
CLINTONVILLE   SUNNY     46  21  36 NW7       30.35S
OSHKOSH        SUNNY     45  29  53 E6        30.37R
$$

WIZ032>034-041-042-053>061-182000-
SOUTHWEST WISCONSIN

CITY           SKY/WX    TMP DP  RH WIND       PRES   REMARKS
LA CROSSE      SUNNY     51  26  37 W9        30.36S
SPARTA         SUNNY     52  22  30 SE8       30.35F
VIROQUA        FAIR      49  27  42 CALM      30.34S
BOSCOBEL       SUNNY     55  21  26 VRB7      30.35S
PRAIRIE DU CHI SUNNY     52  21  30 CALM      30.35R
PLATTEVILLE    FAIR      52  30  42 N3        30.34F
$$

WIZ056-057-062-063-064-067-068-182000-
SOUTH CENTRAL WISCONSIN

CITY           SKY/WX    TMP DP  RH WIND       PRES   REMARKS
BARABOO/DELLS  SUNNY     49  24  37 CALM      30.34F
LONE ROCK      NOT AVBL
WATERTOWN      SUNNY     49  31  51 NE5       30.35S
MADISON        MOSUNNY   52  28  39 VRB7      30.35F
MIDDLETON      FAIR      51  27  39 NE3       30.35F
MONROE         SUNNY     53  28  37 NW5       30.33S
JANESVILLE     SUNNY     54  28  37 CALM      30.33F
$$

WIZ051-052-058>065-066-070>072-182000-
SOUTHEAST WISCONSIN

CITY           SKY/WX    TMP DP  RH WIND       PRES   REMARKS
MILWAUKEE      MOSUNNY   42  30  62 NE10      30.39R
WAUKESHA       NOT AVBL
MILWAUKEE/TIMM SUNNY     45  28  53 E9        30.37R
RACINE         SUNNY     44  31  60 NE12      30.39R
BURLINGTON     SUNNY     53  32  45 CALM      30.34S
KENOSHA        SUNNY     46  33  60 E14       30.36S
FOND DU LAC    SUNNY     45  29  53 E7        30.37S
SHEBOYGAN      SUNNY     44  33  65 NE9       30.36S
WEST BEND      SUNNY     46  27  46 CALM      30.35F
JUNEAU         SUNNY     47  25  43 NE8       30.37S
$$

LSZ147-162-182000-
LAKE SUPERIOR

STATION/POSITION TIME  TEMP    WIND        PRES    WAVE
                       AIR SEA DIR/SP/G            HT/PER
                 (UTC) (F)     (DEG/KT/KT) (MB)    (FT/S)
DEVILS ISLAND    1800   33      CALM  / 97 1031.6F
PORT WING        1840   34      20/  9/ 11 1030.1S
SAXON HARBOR     1840           40/  6/  8 1030.5S
$$

LMZ867-665-643>646-182000-
LAKE MICHIGAN

STATION/POSITION TIME  TEMP    WIND        PRES    WAVE
                       AIR SEA DIR/SP/G            HT/PER
                 (UTC) (F)     (DEG/KT/KT) (MB)    (FT/S)
NORTHPORT PIER   1800   37     330/  6/  7 1028.8S
SISTER BAY       1823             CALM       N/A
KEWAUNEE LAKESHO 1800   39      70/  7/ 10 1029.1F
SHEBOYGAN LAKESH 1800   36      60/ 12/ 13 1029.3F
PORT WASHINGTON  1800   37      70/  8/ 10 1029.1S
MILWAUKEE LAKESH 1800   36      50/ 10/ 12   N/A
KENOSHA   LAKESH 1800   37      40/ 13/ 16   N/A
$$

TC  - TEMPERATURE IN CELSIUS
VSB - VISIBILITY IN STATUTE MILES
WCI - WIND CHILL INDEX
HX  - HEAT INDEX




USA.gov is the U.S. government's official web portal to all federal, state and local government web resources and services.